Simultaneous Nadir Overpasses (SNOs) Predictions

Prediction of SNOs between GOES-17 and METOP-B Satellite Orbit:

Table of predicted SNOs for the next 14.0 days since TLE Epoch: 1/20/2024
Index Date Time (GOES-17) GOES-17 Lat,Lon METOP-B Lat,Lon Distance(km) Time Diff (sec)
1 01/20/2024 16:31:40 0.00,-104.68 0.44,-106.65 225.03 80
2 01/21/2024 16:13:43 0.00,-104.68 -0.66,-101.67 342.62 80
3 01/23/2024 04:32:47 0.00,-104.66 -0.34,-106.29 185.08 80
4 01/24/2024 04:09:30 -0.00,-104.66 0.76,-101.31 382.43 80
5 01/25/2024 16:28:24 0.01,-104.67 0.27,-105.89 138.48 80
6 01/26/2024 16:10:27 0.01,-104.67 -0.83,-100.90 429.65 80
7 01/28/2024 04:29:30 -0.02,-104.67 -0.21,-105.52 96.88 80
8 01/29/2024 04:06:13 -0.02,-104.67 0.90,-100.54 471.14 80
9 01/30/2024 16:25:07 0.02,-104.68 0.12,-105.12 49.47 80
10 02/02/2024 04:26:13 -0.02,-104.69 -0.03,-104.75 7.20 80
